[[{"header":{"parameterUnit":"m.s-1","parameterCategory":1,"la1":30.2991,"la2":30.254,"lo1":-89.0895,"lo2":-89.0444,"dy":0.0017,"dx":0.0017,"nx":28,"ny":28,"refTime":"2025-01-26T09:00:00:Z","depth":0,"parameterNumber":2,"parameterNumberName":"U-component_of_WINDS"},"data":[0,0,0,0,0,0,0,0,0,0,0,0,0,0,0,0,0,0,0,0,0,0,0,0,0,0,0,0,0,0,0,0,0,0,0,0,0,0,0,0,0,0,0,0,0,0,0,0,0,0,0,0,0,0,0,0,0,0,-0.2589,-0.2589,0,-0.2632,-0.2633,-0.2633,-0.2631,-0.2631,-0.263,-0.2629,-0.2675,-0.2677,-0.2678,0,0,0,0,0,0,0,0,0,0,0,0,0,-0.2505,-0.2506,-0.2589,-0.2589,-0.259,-0.2632,-0.2633,-0.2633,-0.2631,-0.2631,-0.263,-0.2629,-0.2674,-0.2676,-0.2678,0,0,0,0,0,0,0,0,0,0,0,0,0,-0.2544,-0.2507,-0.2589,-0.2594,-0.2595,-0.2632,-0.2633,-0.2633,-0.2632,-0.2631,-0.263,-0.2629,-0.2674,-0.2676,-0.2679,-0.2714,0,0,-0.2687,-0.2688,0,0,0,0,0,0,0,0,-0.2542,-0.2547,-0.2593,-0.2594,-0.2595,-0.2625,-0.262,-0.266,-0.2632,-0.2618,-0.2629,-0.2628,-0.2659,-0.2663,-0.2673,-0.2716,-0.2718,-0.2687,-0.2689,-0.269,-0.2691,0,0,0,0,0,0,0,-0.2539,-0.2545,-0.2606,-0.2593,-0.2595,-0.2594,-0.2599,-0.2627,-0.2643,-0.2619,-0.2619,-0.2624,-0.266,-0.2671,-0.2674,-0.2718,-0.2687,-0.2689,-0.2691,-0.2692,-0.2791,-0.2792,0,0,0,0,0,0,-0.2535,-0.2543,-0.2604,-0.2607,-0.2565,-0.2596,-0.2602,-0.2616,-0.2643,-0.2646,-0.2625,-0.2624,-0.2666,-0.2671,-0.2676,-0.2718,-0.269,-0.2692,-0.2694,-0.279,-0.2791,-0.2793,0,0,0,0,0,0,-0.2533,-0.2541,-0.2603,-0.2575,-0.2583,-0.2599,-0.2616,-0.2618,-0.2629,-0.2647,-0.265,-0.2633,-0.2666,-0.2672,-0.2704,-0.272,-0.2694,-0.2696,-0.2789,-0.2791,-0.2792,-0.2804,0,0,0,0,0,0,-0.2531,-0.254,-0.2553,-0.2575,-0.2584,-0.263,-0.2617,-0.2619,-0.2633,-0.2632,-0.2656,-0.2659,-0.2666,-0.27,-0.2707,-0.2723,-0.2698,-0.2788,-0.279,-0.2791,-0.2802,-0.2806,-0.2809,0,0,0,0,0,-0.2528,-0.2555,-0.2554,-0.2561,-0.2601,-0.2631,-0.2636,-0.2644,-0.2635,-0.2648,-0.266,-0.2658,-0.2717,-0.2703,-0.2711,-0.2728,-0.2787,-0.2789,-0.2791,-0.2801,-0.2805,-0.2808,0,0,0,0,0,0,-0.2535,-0.2558,-0.2557,-0.2592,-0.261,-0.2631,-0.2649,-0.2648,-0.2669,-0.2667,-0.2675,-0.268,-0.2713,-0.2723,-0.2708,-0.2763,-0.2751,-0.2754,-0.2755,-0.2759,-0.2762,-0.276,-0.27,0,0,0,0,0,-0.2541,-0.2563,-0.2582,-0.2611,-0.262,-0.2633,-0.2646,-0.265,-0.2668,-0.2676,-0.269,-0.2708,-0.273,-0.2745,-0.2767,-0.2803,-0.2808,-0.2819,-0.2822,-0.2824,-0.2828,-0.2848,-0.2853,-0.28,-0.28,-0.28,0,0,-0.2553,-0.2568,-0.2582,-0.2613,-0.2627,-0.265,-0.2639,-0.2664,-0.2681,-0.268,-0.2711,-0.2721,-0.2742,-0.2776,-0.2792,-0.2787,-0.2844,-0.2827,-0.2829,-0.2832,-0.2851,-0.2856,-0.286,-0.2802,-0.2801,-0.2801,0,0,-0.2587,-0.2601,-0.2627,-0.2641,-0.2661,-0.267,-0.2676,-0.2697,-0.2704,-0.2735,-0.2734,-0.2754,-0.2793,-0.2808,-0.2821,-0.2859,-0.2858,-0.2866,-0.2883,-0.2902,-0.2906,-0.291,-0.2924,-0.2929,-0.2869,-0.2869,-0.2869,0,-0.26,-0.2634,-0.264,-0.2665,-0.2679,-0.2678,-0.2704,-0.2717,-0.2744,-0.2754,-0.2747,-0.2795,-0.2809,-0.2847,-0.2856,-0.2866,-0.2873,-0.2864,-0.2905,-0.2909,-0.2913,-0.2926,-0.2932,-0.287,-0.287,-0.287,-0.287,0,-0.2649,-0.2673,-0.2691,-0.2717,-0.2732,-0.2758,-0.2768,-0.2783,-0.2785,-0.2793,-0.2825,-0.2841,-0.2866,-0.2875,-0.2878,-0.2913,-0.2909,-0.2903,-0.2891,-0.2919,-0.2931,-0.2937,-0.2871,-0.2871,-0.287,-0.287,0,0,-0.2691,-0.2718,-0.2725,-0.2737,-0.2759,-0.2778,-0.2803,-0.2827,-0.284,-0.2858,-0.2879,-0.2911,-0.2906,-0.292,-0.2924,-0.2941,-0.2971,-0.2933,-0.2934,-0.294,-0.3011,-0.3016,-0.3022,-0.2969,-0.297,-0.2971,-0.3009,0,-0.2728,-0.2773,-0.2778,-0.2818,-0.284,-0.2838,-0.286,-0.2876,-0.2885,-0.2905,-0.2914,-0.2937,-0.2928,-0.2936,-0.2953,-0.2964,-0.2985,-0.2961,-0.299,-0.2991,-0.2986,-0.3029,-0.3034,-0.3069,-0.3015,-0.3015,-0.3016,0,-0.2778,-0.2797,-0.2839,-0.2858,-0.2867,-0.2887,-0.2909,-0.2927,-0.2945,-0.295,-0.2966,-0.2967,-0.2993,-0.2978,-0.3014,-0.2998,-0.301,-0.3017,-0.3018,-0.3022,-0.3006,-0.3035,-0.3081,-0.3086,-0.3024,-0.3023,-0.3023,0,-0.2805,-0.2841,-0.2871,-0.2881,-0.2903,-0.2917,-0.2927,-0.2944,-0.2958,-0.2977,-0.2986,-0.3008,-0.302,-0.3037,-0.3044,-0.3033,-0.308,-0.3066,-0.3085,-0.3085,-0.3096,-0.3096,-0.3146,-0.3102,-0.3102,-0.3102,-0.3102,0,-0.2847,-0.2873,-0.2883,-0.2902,-0.293,-0.2936,-0.2964,-0.2974,-0.2988,-0.3009,-0.3008,-0.3027,-0.3035,-0.3055,-0.3061,-0.309,-0.3095,-0.31,-0.3102,-0.3101,-0.3101,-0.311,-0.3108,-0.3103,-0.3103,-0.3103,-0.3102,0,-0.2883,-0.2891,-0.2923,-0.2941,-0.2946,-0.2967,-0.2983,-0.3,-0.3008,-0.3033,-0.304,-0.3052,-0.3075,-0.3084,-0.3112,-0.3116,-0.315,-0.3149,-0.3144,-0.3145,-0.3164,-0.3162,-0.3223,-0.3231,-0.3181,-0.3181,-0.3182,0,-0.291,-0.2929,-0.2949,-0.2963,-0.2973,-0.2994,-0.3008,-0.3014,-0.3028,-0.305,-0.3065,-0.3088,-0.3107,-0.3145,-0.3156,-0.3178,-0.3178,-0.3198,-0.3182,-0.318,-0.318,-0.3179,-0.3181,-0.3201,-0.3202,-0.3202,-0.3203,0,-0.2956,-0.2959,-0.2979,-0.3,-0.3017,-0.3034,-0.305,-0.3061,-0.3069,-0.3085,-0.3109,-0.3124,-0.3153,-0.3176,-0.3198,-0.3208,-0.3207,-0.3207,-0.3213,-0.3213,-0.321,-0.3213,-0.3153,-0.3206,-0.3206,-0.3206,-0.3206,-0.3205,-0.2989,-0.3007,-0.3023,-0.3045,-0.3058,-0.3073,-0.3091,-0.31,-0.312,-0.3144,-0.3146,-0.3171,-0.3188,-0.3217,-0.3229,-0.3249,-0.3244,-0.3252,-0.3254,-0.3256,-0.3258,-0.3206,-0.3253,-0.3253,-0.3253,-0.3252,-0.3252,0,-0.3037,-0.3047,-0.3067,-0.309,-0.3107,-0.3103,-0.3121,-0.3136,-0.3158,-0.3174,-0.3192,-0.3219,-0.3242,-0.3254,-0.3276,-0.329,-0.329,-0.3296,-0.3295,-0.3298,-0.3261,-0.3254,-0.3295,-0.3295,-0.3295,-0.3295,-0.3295,-0.3295,-0.3064,-0.3093,-0.3098,-0.3133,-0.3143,-0.3168,-0.3179,-0.3193,-0.3205,-0.3235,-0.3253,-0.3261,-0.3275,-0.3298,-0.3318,-0.3321,-0.333,-0.3336,-0.3339,-0.3305,-0.33,-0.3296,-0.329,-0.3338,-0.3338,-0.3374,-0.3375,-0.3375]},{"header":{"parameterUnit":"m.s-1","parameterCategory":1,"la1":30.2991,"la2":30.254,"lo1":-89.0895,"lo2":-89.0444,"dy":0.0017,"dx":0.0017,"nx":28,"ny":28,"refTime":"2025-01-26T09:00:00:Z","depth":0,"parameterNumber":3,"parameterNumberName":"V-component_of_WINDS"},"data":[0,0,0,0,0,0,0,0,0,0,0,0,0,0,0,0,0,0,0,0,0,0,0,0,0,0,0,0,0,0,0,0,0,0,0,0,0,0,0,0,0,0,0,0,0,0,0,0,0,0,0,0,0,0,0,0,0,0,-4.0372,-4.0373,0,-4.0445,-4.0445,-4.0446,-4.042,-4.0418,-4.0417,-4.0415,-4.0484,-4.0487,-4.0491,0,0,0,0,0,0,0,0,0,0,0,0,0,-4.0207,-4.021,-4.0372,-4.0373,-4.0374,-4.0444,-4.0445,-4.0446,-4.042,-4.0418,-4.0416,-4.0414,-4.0483,-4.0487,-4.0491,0,0,0,0,0,0,0,0,0,0,0,0,0,-4.0279,-4.0211,-4.0372,-4.037,-4.037,-4.0444,-4.0445,-4.0447,-4.0421,-4.0418,-4.0416,-4.0413,-4.0482,-4.0487,-4.0491,-4.0571,0,0,-4.0507,-4.0509,0,0,0,0,0,0,0,0,-4.0275,-4.0285,-4.0369,-4.037,-4.0371,-4.0421,-4.0412,-4.0488,-4.0421,-4.0401,-4.0415,-4.0412,-4.0465,-4.0471,-4.049,-4.0574,-4.0577,-4.0507,-4.051,-4.0512,-4.0514,0,0,0,0,0,0,0,-4.027,-4.0281,-4.0401,-4.037,-4.0371,-4.0363,-4.0371,-4.0427,-4.0445,-4.0403,-4.0401,-4.041,-4.0465,-4.0485,-4.0491,-4.0578,-4.0507,-4.0512,-4.0515,-4.0517,-4.0732,-4.0734,0,0,0,0,0,0,-4.0265,-4.0278,-4.0398,-4.0403,-4.0316,-4.0368,-4.0377,-4.0407,-4.0445,-4.0448,-4.0412,-4.0409,-4.0477,-4.0485,-4.0493,-4.0589,-4.0512,-4.0517,-4.052,-4.0729,-4.0732,-4.0735,0,0,0,0,0,0,-4.0262,-4.0276,-4.0395,-4.034,-4.0354,-4.0374,-4.0408,-4.041,-4.043,-4.0452,-4.0455,-4.043,-4.0476,-4.0486,-4.0552,-4.0591,-4.0519,-4.0524,-4.0726,-4.073,-4.0734,-4.0782,0,0,0,0,0,0,-4.0257,-4.0275,-4.0307,-4.0341,-4.0358,-4.0455,-4.041,-4.0413,-4.0439,-4.0436,-4.0469,-4.0473,-4.0475,-4.0545,-4.0557,-4.0597,-4.0528,-4.0722,-4.0728,-4.0732,-4.0777,-4.0787,-4.0796,0,0,0,0,0,-4.0251,-4.0316,-4.0308,-4.0323,-4.0398,-4.0457,-4.0466,-4.0469,-4.0443,-4.0474,-4.0488,-4.0471,-4.0585,-4.0552,-4.0566,-4.0607,-4.072,-4.0726,-4.0732,-4.0773,-4.0785,-4.0796,0,0,0,0,0,0,-4.0284,-4.032,-4.0312,-4.039,-4.0421,-4.0453,-4.0492,-4.0482,-4.052,-4.0514,-4.0514,-4.0522,-4.059,-4.0605,-4.0568,-4.0686,-4.0648,-4.0657,-4.0674,-4.0686,-4.0696,-4.0691,-4.0532,0,0,0,0,0,-4.03,-4.0347,-4.0376,-4.0442,-4.0458,-4.0473,-4.0499,-4.0498,-4.0529,-4.0542,-4.056,-4.059,-4.0632,-4.066,-4.07,-4.0779,-4.0785,-4.0814,-4.0823,-4.0831,-4.0839,-4.0882,-4.0895,-4.0755,-4.0755,-4.0755,0,0,-4.0335,-4.036,-4.039,-4.0449,-4.0473,-4.0521,-4.0484,-4.0535,-4.057,-4.0549,-4.0613,-4.0628,-4.066,-4.0733,-4.0766,-4.0748,-4.0879,-4.0839,-4.0845,-4.0849,-4.089,-4.0903,-4.0915,-4.0759,-4.0758,-4.0758,0,0,-4.0421,-4.0446,-4.0504,-4.0529,-4.0566,-4.0575,-4.0589,-4.0623,-4.0632,-4.0697,-4.0683,-4.0723,-4.0796,-4.082,-4.0842,-4.0938,-4.0925,-4.0951,-4.1001,-4.1043,-4.1054,-4.1063,-4.1098,-4.1111,-4.0959,-4.0959,-4.0959,0,-4.0459,-4.0531,-4.0535,-4.0588,-4.0615,-4.06,-4.0658,-4.0681,-4.0729,-4.0747,-4.0726,-4.0818,-4.0838,-4.0917,-4.0941,-4.0959,-4.0974,-4.0948,-4.1052,-4.1062,-4.1071,-4.1104,-4.1117,-4.0962,-4.0962,-4.0961,-4.0961,0,-4.0576,-4.0626,-4.0668,-4.0717,-4.0748,-4.0804,-4.0814,-4.0845,-4.0842,-4.0853,-4.0918,-4.0943,-4.0988,-4.1007,-4.1003,-4.1085,-4.1072,-4.1052,-4.1013,-4.1087,-4.1119,-4.1131,-4.0966,-4.0965,-4.0964,-4.0964,0,0,-4.0685,-4.0736,-4.0751,-4.0774,-4.0814,-4.0852,-4.0906,-4.0952,-4.0979,-4.1012,-4.1057,-4.1119,-4.1101,-4.1125,-4.1124,-4.1161,-4.1237,-4.1136,-4.1137,-4.1154,-4.1328,-4.1344,-4.1359,-4.1227,-4.123,-4.1232,-4.1326,0,-4.0776,-4.0874,-4.0878,-4.0967,-4.1013,-4.1,-4.1047,-4.1076,-4.1087,-4.1127,-4.1139,-4.1184,-4.1156,-4.1171,-4.1206,-4.122,-4.1272,-4.1213,-4.1269,-4.1271,-4.1262,-4.1375,-4.1392,-4.148,-4.1338,-4.134,-4.1341,0,-4.0895,-4.0934,-4.1028,-4.1062,-4.1081,-4.1124,-4.1167,-4.1206,-4.1237,-4.1243,-4.1272,-4.1265,-4.132,-4.1279,-4.1354,-4.1314,-4.1337,-4.1347,-4.135,-4.1356,-4.1311,-4.1384,-4.1507,-4.1521,-4.1361,-4.1359,-4.1358,0,-4.0966,-4.1042,-4.1108,-4.1127,-4.1169,-4.1199,-4.1217,-4.1247,-4.1275,-4.1311,-4.1329,-4.1371,-4.1393,-4.1425,-4.143,-4.14,-4.1505,-4.1465,-4.151,-4.1511,-4.1534,-4.1532,-4.1663,-4.1547,-4.1547,-4.1547,-4.1547,0,-4.1067,-4.1125,-4.1141,-4.1182,-4.1246,-4.125,-4.1313,-4.1328,-4.1355,-4.1398,-4.1387,-4.1427,-4.1431,-4.1471,-4.1475,-4.1536,-4.1546,-4.1552,-4.1552,-4.1553,-4.1553,-4.1568,-4.1563,-4.155,-4.155,-4.1549,-4.1548,0,-4.1158,-4.1171,-4.1243,-4.1276,-4.1286,-4.1332,-4.136,-4.1398,-4.1409,-4.1463,-4.1476,-4.1492,-4.1539,-4.1547,-4.1602,-4.1604,-4.1678,-4.1671,-4.1668,-4.1667,-4.1713,-4.1709,-4.1858,-4.1878,-4.1749,-4.1751,-4.1752,0,-4.1222,-4.1267,-4.1306,-4.1335,-4.1355,-4.1401,-4.143,-4.1435,-4.1465,-4.1505,-4.1539,-4.1585,-4.1623,-4.1698,-4.1714,-4.1756,-4.1751,-4.18,-4.1757,-4.1757,-4.1752,-4.175,-4.1754,-4.1809,-4.181,-4.1811,-4.1812,0,-4.1335,-4.1339,-4.1382,-4.1428,-4.1463,-4.1498,-4.1531,-4.1555,-4.1564,-4.1598,-4.1647,-4.1676,-4.1733,-4.1779,-4.1821,-4.1838,-4.1827,-4.1826,-4.1839,-4.1841,-4.1837,-4.184,-4.1691,-4.1823,-4.1822,-4.1821,-4.182,-4.182,-4.1415,-4.1454,-4.1488,-4.1536,-4.1562,-4.1594,-4.1632,-4.1648,-4.169,-4.1738,-4.1738,-4.1792,-4.1822,-4.1878,-4.1897,-4.1939,-4.1922,-4.1941,-4.1946,-4.195,-4.1955,-4.183,-4.1946,-4.1946,-4.1945,-4.1945,-4.1945,0,-4.1527,-4.1549,-4.1593,-4.1642,-4.1679,-4.1667,-4.1703,-4.1735,-4.1783,-4.1813,-4.1851,-4.1908,-4.1952,-4.1972,-4.2016,-4.2045,-4.2041,-4.2056,-4.2054,-4.2058,-4.1967,-4.1952,-4.2059,-4.2059,-4.2059,-4.2059,-4.2059,-4.2059,-4.1591,-4.1657,-4.1666,-4.1744,-4.1765,-4.1819,-4.1841,-4.187,-4.1894,-4.1959,-4.1996,-4.2009,-4.2035,-4.2081,-4.2121,-4.2125,-4.2142,-4.216,-4.2162,-4.2076,-4.2065,-4.2054,-4.204,-4.2163,-4.2164,-4.225,-4.2251,-4.2252]}]]